Flag Weather past 2 weeks in Bakersfield, California, U.S.A.

Now
49 °F

Clear.


Feels Like: 47 °F
Forecast: 49 / 74 °F
Wind: 5 mph from Northeast

Location: Meadows Field

Current Time: Nov 27, 2014 at 4:15:51 AM

Latest Report: Nov 27, 2014 at 2:54 AM


Visibility: 4 mi

Pressure: 30.19 "Hg

Humidity: 71%

Dew point: 40 °F

Location of BakersfieldLocation

Historic Weather in Bakersfield — Graph

°F

Bakersfield temperature yesterday

Maximum temperature yesterday: 68 °F (at 1:54 PM)
Minimum temperature yesterday: 43 °F (at 5:54 AM)
Average temperature yesterday: 55 °F

Past Weeks' High & Low Weather Summary

 TemperatureHumidityPressure
High73 °F (Nov 13, 2:54 PM)96% (Nov 21, 5:54 AM)30.47 "Hg (Nov 21, 5:54 AM)
Low42 °F (Nov 18, 5:54 AM)17% (Nov 19, 12:54 PM)29.95 "Hg (Nov 12, 1:54 PM)
Average57 °F64%30.16 "Hg
* Reported Nov 12 2:54 AM — Nov 27 2:54 AM, Bakersfield, Weather by CustomWeather, © 2014

Note: Actual official high and low records may vary slightly from our data, if they occured in-between our weather recording intervals... More about our weather records

Advertising

Bakersfield weather history for previous 24 hours

 ConditionsComfort  
Time TempWeatherWind HumidityBarometerVisibility
2:54 AM
Nov 27
49 °FClear.5 mph71%30.19 "Hg4 mi
1:54 AM49 °FClear.No wind71%30.20 "Hg4 mi
12:54 AM51 °FClear.5 mph69%30.21 "Hg5 mi
11:54 PM
Nov 26
52 °FClear.No wind69%30.22 "Hg4 mi
10:54 PM52 °FClear.No wind69%30.23 "Hg5 mi
9:54 PM54 °FClear.3 mph64%30.22 "Hg5 mi
8:54 PM55 °FClear.3 mph62%30.22 "Hg5 mi
7:54 PM56 °FClear.3 mph60%30.23 "Hg5 mi
6:54 PM59 °FClear.3 mph54%30.23 "Hg6 mi
5:54 PM62 °FClear.3 mph48%30.23 "Hg6 mi
4:54 PM65 °FClear.No wind44%30.22 "Hg5 mi
3:54 PM68 °FSunny.No wind40%30.21 "Hg4 mi
2:54 PM68 °FSunny.No wind42%30.21 "Hg4 mi
1:54 PM68 °FSunny.6 mph42%30.22 "Hg4 mi
12:54 PM66 °FSunny.No wind45%30.24 "Hg4 mi
11:54 AM63 °FSunny.No wind48%30.27 "Hg4 mi
10:54 AM60 °FSunny.5 mph52%30.30 "Hg4 mi
9:54 AM56 °FSunny.5 mph58%30.34 "Hg4 mi
8:54 AM51 °FSunny.3 mph61%30.35 "Hg5 mi
7:54 AM48 °FSunny.5 mph66%30.35 "Hg5 mi
6:54 AM44 °FSunny.No wind71%30.34 "Hg5 mi
5:54 AM43 °FClear.No wind71%30.32 "Hg7 mi
4:54 AM46 °FClear.No wind71%30.30 "Hg6 mi
Weather by CustomWeather, © 2014

See weather overviewHow to use our weather pages